Location: St. Louis
(38.6270°N, 90.1994°W)
Time: 00:27:15
(UTC-06:00)

Vanguard 2 - Pass Details

Date: 04 December 2021
Orbit: 553 x 2936 km, 32.9° (Epoch: 16 January)

Event Time Altitude Azimuth Distance (km) Brightness Sun altitude
Rises 14:03:36 0° 251° (WSW) 2,900 11.3 21.6°
Reaches altitude 10° 14:05:38 10° 245° (WSW) 2,124 10.9 21.4°
Maximum altitude 14:10:17 48° 170° (S) 1,121 9.2 20.9°
Drops below altitude 10° 14:17:25 10° 99° (E) 3,243 10.5 20.1°
Sets 14:21:12 0° 95° (E) 4,621 11.2 19.6°
